Showing default

GEESAT 3-05, 61015

Orbit data source: Space-Track

GEESAT 3-05, 61015 is a payload satellite owned by GeeSpace (CN) in LEO that was launched on Thu, 05 Sep 2024 UTC via a CHANG ZHENG 6 launch vehicle from the Taiyaun Space Center, China (TSC). Payloads include a variety of satellites, spacecraft, and rockets equipped with specific instruments for various scientific and technological missions. These include communications satellites like Starlink; space stations such as the ISS; scientific satellites like the Hubble; Earth observation satellites from companies like Planet Labs, Umbra, and HawkEye 360; GPS; miniature CubeSats for education and research; and military/defense satellites.

Loading next visibility...
GEESAT 3-05 details
Identifier
61015, 2024-159E
Orbit
LEO
Last TLE update9 hours ago
Origin
Flag of CNGeeSpace (CN / PRC)
ManufacturerTaizhou Xingkong
MissionOperational spacecraft
Bus & MotorGEESAT1, Unknown motor
Mass130 kg wet, 130 kg dry
Launch date (UTC)
2024-09-05 (4 months ago)
Launch vehicle
CHANG ZHENG 6
Launch site
Taiyaun Space Center, China (TSC)
Object type
Payload
Rocket body
Debris
Shape & HBRUnknown
Radar Cross SectionLarge (>1 m²)

Expand to show TLE details & history

TLE from 9 hours ago
0 GEESAT 3-05
1 61015U 24159E   25015.12904564  .00008453  00000-0  85237-3 0  9996
2 61015  50.0051 342.0317 0008266 315.7202  44.3078 14.91745112 19616
Epoch: 2025-01-15T03:05Z
Definitive object data (Epoch: 2025-01-15T03:05:49.543Z)
Latitude
Longitude-179.25055°
Altitude588.92 km
Speed7.569 km/s
True Right ascension22h 48m 07s
True Declination0° 00' 00"
Sunlit
Object was in daylight at TLE epoch
Visualization TLE readout
Latitude7.24308°
Longitude-7.05924°
Altitude597.182 km
Speed7.56 km/s
Apparent Right ascension07h 21m 28s
Apparent Declination-38° 44' 22"
Sunlit
Object is in full shadow
Visualization observer readout
Local Sidereal Time12:34:05
Azimuth232.646° WSW
Elevation-16.186°
Doppler factor1
Orbital elements
Apogee altitude599.017 km
Perigee altitude587.492 km
Semi-major axis6,971.391 km
Eccentricity0.0008266
Inclination50.0051°
RAAN342.0317°
Arg. of periapsis315.7202°
True anomaly44.37401°
Mean anomaly44.3078°
Eccentric anomaly44.3409°
Mean motion3.72876 °/min
BSTAR0.00085237
Orbital period96.55 mins
Loading maneuver chart data...
Loading historical data...
Loading historical data...
Loading historical data...
Loading historical data...
Loading historical data...
Loading historical data...
Loading historical data...

GEESAT 3-05 Visibility forecast

Observer location: undefined°, undefined

Span
Click to sort rows by Start time (UTC) header in descending order
Start Az.
Max El. time (UTC)
Max El. Az.
Max El.
End time (UTC)
End Az.
8 mins2025-01-16 00:09:49.271Z214.168° SW2025-01-16 00:13:49.271Z130.19° SE37.96°2025-01-16 00:17:49.271Z64.162° ENE
6 mins2025-01-16 01:51:49.271Z278.44° WNW2025-01-16 01:54:49.271Z345.257° N30.776°2025-01-16 01:57:49.271Z40.469° NE
4 mins2025-01-16 03:34:49.271Z330.012° NNW2025-01-16 03:35:49.271Z348.124° N19.932°2025-01-16 03:38:49.271Z40.09° NE
6 mins2025-01-16 05:15:49.271Z330.175° NNW2025-01-16 05:17:49.271Z10.548° NNE27.143°2025-01-16 05:21:49.271Z80.757° E
6 mins2025-01-16 06:56:49.271Z296.861° NW2025-01-16 06:58:49.271Z261.803° W42.455°2025-01-16 07:02:49.271Z134.431° SE
|